Temperature
20 20 21 21 17 14 15 15 14 14 12 12 12 11 10 9 11 10 8 8 9 9 9 8 7 7 7 6 6 6 5 5 5 4 4 4 4 4 4 3 3 3 3 4 4 4 4 5 5
20 21 21 20 15 14 15 14 13 13 13 12 11 10 9 7 8 8 8 8 8 9 9 9 8 7 7 7 6 6 5 5 4 4 4 3 3 3 3 3 3 3 3 3 3 3 3 3 4
21 21 21 15 15 15 14 13 12 13 13 13 11 10 9 8 8 8 8 8 8 9 9 9 8 8 8 7 7 6 5 4 4 3 3 3 3 3 3 2 2 2 2 2 2 2 2 2 3
21 21 19 14 15 14 13 11 12 12 13 12 11 9 8 8 8 8 8 8 8 9 9 8 8 8 8 7 6 6 5 4 4 3 3 3 3 2 2 2 2 2 2 2 2 2 2 2 2
21 21 14 13 14 13 11 12 13 12 12 12 11 8 8 8 8 8 8 8 8 9 9 8 8 8 7 7 6 5 5 4 3 3 3 3 3 2 2 2 2 2 2 2 2 2 2 2 1
21 18 14 13 13 13 13 13 13 12 12 11 11 8 8 8 8 8 8 8 8 8 8 8 8 8 7 7 6 5 5 4 4 4 4 4 4 3 3 3 3 3 3 3 3 2 2 2 2
20 14 14 13 12 13 13 14 13 12 12 12 12 9 7 7 8 8 8 8 8 8 8 8 8 7 7 7 7 6 5 5 5 5 5 5 5 4 4 4 4 3 3 3 2 2 2 2 2
21 14 14 12 13 13 14 14 14 14 13 12 12 10 9 9 8 7 8 8 8 8 8 7 7 7 7 7 7 6 6 6 5 5 4 4 4 4 4 4 3 3 3 2 2 1 1 2 2
20 14 14 13 13 13 14 14 13 13 13 12 12 12 12 11 8 7 7 7 7 7 7 7 7 7 7 7 6 6 6 5 5 4 4 4 4 4 3 3 2 2 1 1 1 1 1 1 1
19 14 15 15 14 12 14 14 13 12 12 12 12 12 12 11 10 9 8 8 8 8 7 7 7 7 7 6 6 6 5 5 4 4 4 3 3 3 2 2 1 1 0 -0 -1 -1 -1 -2 -2
15 13 14 14 15 14 13 13 13 12 10 12 13 12 12 11 10 9 9 8 8 8 7 7 7 7 6 6 6 5 5 4 4 4 3 3 2 2 1 1 0 -1 -1 -2 -3 -3 -4 -4 -4
14 13 14 14 14 14 14 14 13 12 13 14 14 13 12 11 10 10 9 8 8 7 7 7 7 6 6 6 5 5 5 4 3 3 3 2 2 1 0 -1 -1 -2 -3 -4 -5 -6 -6 -6 -6
13 13 14 14 14 14 14 13 13 13 14 13 13 12 12 12 11 10 9 8 7 7 7 7 7 6 6 5 5 5 4 4 3 2 2 1 1 -0 -1 -2 -3 -4 -4 -5 -6 -6 -6 -6 -6
13 13 13 14 14 14 13 13 12 14 14 13 13 13 12 12 11 10 9 8 7 7 7 7 7 6 6 5 5 4 4 3 2 2 1 0 -0 -1 -2 -3 -3 -4 -5 -5 -6 -6 -7 -7 -7
13 12 12 13 13 13 13 11 11 14 14 13 13 13 12 12 11 10 10 9 8 8 7 7 7 6 5 5 4 4 3 3 2 1 0 -0 -1 -2 -2 -3 -3 -4 -5 -5 -6 -6 -7 -7 -7
14 13 13 13 12 12 11 12 13 15 13 12 12 12 12 11 11 11 10 9 8 8 7 7 7 6 5 5 4 4 3 2 2 1 0 -1 -1 -2 -2 -3 -3 -4 -5 -6 -6 -7 -7 -8 -8
14 14 14 14 11 10 10 10 12 14 13 12 12 12 12 11 11 10 10 9 8 8 7 7 7 6 5 5 4 4 3 2 1 1 0 -1 -1 -2 -3 -3 -3 -4 -5 -6 -7 -7 -8 -8 -9
16 14 14 14 12 10 9 10 11 12 12 12 13 12 12 12 12 12 10 9 8 8 7 7 6 6 5 5 4 3 3 2 1 1 0 -1 -1 -2 -3 -3 -3 -4 -5 -6 -7 -8 -8 -9 -9
16 16 16 15 13 11 10 11 12 13 11 10 11 12 12 13 13 12 11 10 9 8 7 7 7 6 5 5 4 3 3 2 1 1 0 -1 -1 -2 -3 -3 -4 -5 -6 -7 -8 -9 -9 -9 -10
17 16 16 15 13 12 11 11 12 12 11 11 11 12 13 14 13 12 11 10 9 9 8 8 7 6 6 5 4 3 3 2 1 1 0 -1 -2 -2 -3 -3 -4 -5 -6 -7 -8 -9 -10 -10 -10
16 16 15 15 14 12 12 11 12 13 12 12 13 14 14 15 14 14 12 11 10 10 9 9 8 7 6 5 4 3 3 2 1 1 -0 -1 -2 -2 -3 -4 -5 -6 -7 -8 -9 -9 -10 -11 -11
15 15 15 15 13 11 13 12 13 13 12 11 13 14 15 16 15 14 13 12 12 12 10 9 8 7 6 5 4 3 3 2 1 1 -0 -1 -2 -2 -3 -4 -5 -6 -7 -8 -9 -10 -10 -11 -11
15 15 14 14 13 11 11 11 13 13 13 12 13 16 18 18 17 16 15 14 13 12 11 10 8 7 6 4 4 3 3 2 1 0 -0 -1 -2 -3 -4 -4 -5 -6 -7 -8 -9 -10 -10 -11 -11
14 14 13 11 10 11 11 11 12 12 13 14 15 18 20 19 18 17 15 14 13 12 11 10 8 7 6 4 3 3 3 2 1 0 -0 -1 -2 -3 -4 -5 -5 -6 -7 -8 -9 -10 -10 -11 -11
14 13 13 13 12 12 12 12 13 14 12 13 16 20 21 20 19 17 16 15 14 13 12 11 9 7 6 4 3 3 2 2 1 0 -1 -1 -2 -3 -4 -5 -6 -7 -8 -8 -9 -10 -10 -11 -11
13 13 13 14 12 12 13 12 14 14 14 16 18 20 20 20 19 18 17 16 15 14 13 11 10 8 6 5 4 3 2 2 1 0 -1 -1 -2 -3 -4 -5 -6 -7 -8 -8 -9 -10 -10 -11 -11
14 12 12 11 12 11 11 11 12 14 14 14 16 17 19 20 19 18 17 16 15 14 13 12 10 8 6 5 3 3 2 2 1 -0 -1 -2 -3 -3 -4 -5 -6 -7 -8 -8 -9 -9 -10 -10 -10
13 12 10 11 12 11 11 11 13 15 14 13 12 15 19 20 19 18 17 17 16 14 13 11 10 8 7 5 3 3 2 1 0 -0 -1 -2 -3 -4 -4 -5 -6 -7 -7 -8 -9 -9 -9 -9 -9
11 12 11 10 10 10 10 13 13 14 14 13 14 17 19 20 19 19 18 17 16 14 13 11 10 8 6 4 3 2 2 1 0 -0 -1 -2 -3 -4 -4 -5 -6 -7 -7 -8 -8 -9 -9 -9 -9
11 11 10 11 11 9 8 13 14 13 12 13 15 17 19 19 19 19 18 17 16 14 13 12 10 8 6 4 3 2 2 1 0 -0 -1 -2 -3 -4 -5 -5 -6 -7 -7 -8 -8 -9 -9 -9 -9
Wind_Speed
4 4 3 4 6 7 3 3 5 5 4 3 5 9 9 5 3 6 6 9 15 12 8 4 8 9 10 11 13 13 14 15 16 17 18 18 18 19 20 20 21 22 22 23 24 25 25 26 27
2 3 5 5 5 4 3 4 6 3 7 7 6 6 6 3 3 9 6 11 17 13 8 4 8 9 10 11 12 13 14 14 15 16 17 18 18 19 19 20 21 21 22 23 23 24 24 25 26
3 3 5 5 5 5 7 5 6 4 5 5 5 5 5 7 7 8 7 15 17 13 8 6 9 8 9 10 11 11 12 13 14 16 17 17 18 19 19 20 21 21 22 23 23 24 24 25 26
4 5 6 6 4 2 5 6 7 8 4 5 6 5 3 2 8 8 12 18 16 12 8 5 8 7 8 9 9 10 11 12 13 15 16 17 18 18 19 20 21 22 22 23 24 24 25 25 26
4 5 7 5 2 2 2 8 8 7 6 4 6 6 2 1 7 11 14 16 14 11 7 4 7 6 6 6 7 8 10 12 13 14 16 17 18 18 19 20 21 22 24 24 25 25 26 26 26
5 5 5 4 3 2 4 6 7 6 6 6 8 8 5 4 9 11 12 14 16 13 9 8 7 6 5 5 6 7 9 11 13 14 16 17 18 19 20 21 23 24 25 25 26 26 27 27 27
5 6 6 8 7 5 6 6 9 7 7 9 10 9 4 6 9 10 12 15 15 14 12 10 8 6 5 4 6 7 9 11 12 14 15 17 19 19 21 23 24 25 25 26 26 27 27 28 27
6 6 6 6 7 7 7 7 6 9 6 8 10 10 8 11 10 10 9 10 11 13 13 11 8 6 5 4 6 7 8 10 11 13 14 16 18 19 22 24 24 25 25 25 25 26 27 27 27
4 6 5 9 9 7 8 6 3 3 6 6 5 7 8 15 13 11 7 6 7 8 10 11 9 6 4 4 6 7 7 9 10 11 12 14 18 19 20 22 23 23 23 23 23 25 25 25 25
6 5 7 5 6 9 9 7 9 6 5 4 1 1 8 17 17 15 12 11 10 9 7 11 10 7 5 4 4 5 5 7 8 9 10 12 15 17 17 19 20 20 20 21 21 23 22 22 21
6 6 4 1 3 9 9 8 8 10 9 11 10 9 15 16 16 16 14 12 11 10 9 10 12 9 6 3 2 3 4 5 6 6 7 9 12 15 16 17 17 18 17 18 18 19 18 18 18
6 3 3 1 4 7 10 9 6 10 11 9 12 17 19 19 20 19 16 12 11 10 10 10 14 11 7 4 2 2 2 2 3 3 4 7 9 10 11 12 13 13 13 13 14 14 16 16 16
4 2 2 4 6 7 8 7 6 9 10 4 11 17 20 20 18 15 12 12 11 12 11 9 14 12 9 6 4 3 2 1 0 0 2 4 5 5 5 6 8 10 10 10 12 13 13 13 14
4 4 3 4 4 2 4 4 5 11 7 9 14 18 19 20 18 14 11 13 14 13 12 9 13 14 11 8 6 5 4 3 3 2 3 3 3 1 1 4 6 8 9 11 12 13 11 11 12
5 5 3 1 0 0 2 7 10 8 9 11 14 16 17 17 16 16 14 14 15 14 13 11 13 15 13 10 7 6 5 4 4 5 5 5 4 3 2 3 6 8 10 11 13 12 11 11 12
4 3 3 5 6 3 5 10 10 8 11 13 13 13 15 17 16 15 14 13 14 14 14 13 13 14 13 11 8 6 5 5 5 6 7 7 5 4 4 4 6 8 10 10 10 7 5 6 6
2 2 5 4 7 6 7 11 8 6 12 13 13 14 15 15 16 15 15 15 16 16 16 14 10 12 13 12 9 6 5 5 5 7 8 8 7 6 5 5 7 8 9 9 9 7 5 6 8
4 5 6 7 6 7 8 14 14 6 12 14 13 13 15 18 20 15 15 15 16 16 15 14 12 11 12 10 7 4 4 5 5 7 9 9 8 7 6 6 7 8 6 5 5 6 6 6 7
4 5 6 6 5 8 12 18 20 10 11 15 14 14 17 21 17 13 14 14 14 15 15 16 13 11 8 5 4 3 3 3 5 8 9 10 8 7 6 6 7 7 5 5 6 5 7 5 5
3 4 5 4 3 7 8 14 16 10 10 14 16 18 20 17 13 14 14 15 18 19 18 17 16 14 12 7 4 3 3 3 5 6 8 9 8 7 6 6 6 7 5 5 6 5 4 5 5
3 4 4 4 3 4 6 11 10 6 6 9 11 13 14 19 18 16 17 18 18 20 21 19 17 15 12 9 5 3 3 1 2 3 4 7 7 7 7 7 7 7 5 5 6 7 6 6 6
4 2 1 1 2 5 2 6 10 7 7 9 13 13 16 17 16 16 17 19 21 21 18 17 17 15 13 11 9 8 6 6 6 4 4 6 7 7 8 8 8 8 7 5 6 7 6 6 7
5 2 1 0 1 4 3 4 11 5 8 13 14 15 18 16 16 16 19 21 20 17 17 16 16 15 13 12 12 9 7 6 4 4 5 5 6 8 8 9 9 8 8 8 8 7 7 5 7
3 3 3 4 4 4 6 7 9 7 10 10 10 12 15 15 14 15 13 13 14 14 15 15 17 16 14 13 12 11 10 9 7 6 6 5 4 6 9 10 10 10 10 9 9 8 8 7 8
3 4 4 4 2 7 4 6 12 12 11 11 12 13 14 13 12 12 13 15 16 18 18 17 18 16 15 14 13 12 11 10 10 8 7 6 4 4 6 9 9 10 12 12 12 7 8 7 8
5 7 6 5 6 6 5 8 11 11 10 11 12 10 10 11 11 13 15 16 17 19 19 19 20 16 16 15 14 11 11 8 7 8 7 7 6 6 9 11 11 12 13 13 11 7 8 7 8
5 6 7 5 3 6 8 9 12 8 8 8 10 9 12 12 12 13 13 15 17 19 21 22 21 17 17 16 13 11 11 10 9 8 8 6 5 7 10 11 10 12 12 12 10 7 9 9 9
3 4 5 4 4 7 8 8 7 9 10 10 11 12 14 12 11 11 12 15 16 17 17 17 18 18 15 15 14 12 11 10 9 8 8 8 7 9 8 8 8 9 10 10 7 8 9 10 11
6 5 6 4 4 6 6 9 8 10 10 12 15 15 14 13 14 14 13 13 12 12 14 17 17 15 14 15 13 11 11 10 9 8 9 8 7 8 7 7 7 8 9 8 8 10 10 11 13
8 9 9 6 7 6 5 11 10 11 11 11 13 13 12 12 11 11 11 10 12 15 15 17 17 17 16 15 13 13 10 10 9 9 9 7 8 7 8 7 8 9 9 9 9 12 12 12 14
Wind_Direction
45 87 69 59 58 56 109 167 151 116 84 64 80 96 103 106 141 152 154 136 123 108 93 64 78 70 62 55 50 44 39 34 31 27 23 22 21 20 19 18 16 13 12 10 9 6 4 3 1
41 101 59 61 84 102 209 170 137 134 143 133 93 88 87 85 92 121 152 138 122 113 106 92 90 77 66 58 51 44 37 33 30 26 22 21 21 20 19 18 15 13 12 11 9 7 5 4 1
13 79 78 70 89 169 193 167 148 125 129 118 79 65 106 142 141 159 158 136 123 117 113 106 98 84 71 59 52 45 37 32 30 26 23 22 21 19 20 18 15 13 13 11 10 8 7 5 2
62 54 54 68 81 326 181 168 149 125 99 80 103 91 78 134 166 160 140 133 126 127 125 113 103 92 79 64 52 46 38 32 30 27 25 24 21 20 22 17 16 14 13 12 10 10 8 6 5
64 79 65 64 50 7 126 150 141 130 142 113 119 130 129 358 134 131 138 137 135 142 133 114 104 91 83 73 54 47 39 33 32 28 27 26 22 20 23 18 16 15 13 12 10 9 7 7 5
62 69 91 147 146 108 168 172 141 128 142 132 130 145 191 173 143 145 145 142 141 139 122 95 96 82 74 67 57 45 41 35 33 29 29 27 22 21 22 17 16 14 12 10 8 6 5 4 2
97 87 130 158 159 183 199 171 152 151 167 176 153 143 193 208 186 155 144 143 143 138 127 112 99 84 65 49 52 44 41 35 32 29 29 28 23 21 21 17 14 12 9 8 5 4 3 1 359
113 100 108 158 171 208 183 159 167 159 182 156 143 154 198 203 186 150 142 143 143 142 138 131 119 101 76 58 47 43 38 33 31 26 27 27 25 24 21 15 12 9 6 4 2 1 360 358 356
88 85 162 192 184 196 180 150 125 137 138 140 172 193 199 160 159 146 147 153 156 154 154 148 137 122 98 83 57 46 41 34 34 29 26 30 31 28 22 13 10 6 3 1 359 357 357 356 353
64 131 186 199 196 175 177 160 154 139 164 182 159 22 134 151 165 169 174 176 173 173 178 165 151 143 118 93 65 56 58 48 40 36 37 38 36 30 23 14 8 4 2 360 356 355 354 352 348
66 139 154 6 156 150 152 159 162 152 206 213 197 176 156 165 176 184 187 182 179 177 177 173 162 155 144 124 91 69 67 51 38 35 38 40 39 32 25 16 7 2 358 357 352 349 344 341 340
79 61 111 52 126 141 158 165 193 200 217 215 187 166 167 177 187 193 194 186 175 176 179 176 167 162 163 161 163 141 111 64 35 34 43 47 44 34 23 11 359 351 346 341 338 332 330 332 335
94 118 49 60 105 135 148 179 219 238 231 199 153 164 178 188 195 200 194 181 174 181 179 176 168 167 170 174 189 182 183 187 289 60 81 74 66 43 18 354 341 335 332 328 325 324 324 327 330
106 89 70 49 63 93 158 223 250 252 187 154 163 181 190 195 197 197 191 184 184 183 179 173 170 171 170 176 193 207 212 221 221 204 169 141 117 101 331 316 319 322 325 325 325 320 321 321 322
93 79 21 290 178 202 88 270 239 241 158 174 188 193 199 204 202 202 196 188 187 184 177 174 173 171 171 178 197 209 220 220 216 209 194 184 183 194 230 276 300 313 324 327 326 322 326 327 327
87 61 288 237 195 168 161 260 258 201 173 196 202 204 207 212 210 208 198 189 185 180 178 180 176 171 173 180 194 209 216 212 215 214 209 204 205 213 233 267 290 309 320 323 319 317 318 314 312
21 287 272 260 193 169 197 250 271 180 190 208 210 211 214 217 219 214 202 193 186 182 181 181 172 171 175 180 186 197 204 208 218 224 222 216 215 225 243 268 285 302 310 315 320 329 310 310 315
237 228 256 254 209 179 222 258 269 215 210 221 218 217 219 221 222 212 204 195 187 183 181 179 174 173 171 169 169 175 195 214 231 237 230 220 221 233 253 269 280 294 299 302 302 302 302 295 299
232 236 262 262 190 190 238 262 273 239 216 231 229 223 225 229 225 210 202 192 183 182 182 181 178 176 165 158 166 178 206 220 241 247 230 219 225 242 261 273 282 287 282 283 292 295 300 298 296
247 278 278 286 196 208 270 276 272 238 214 223 226 226 228 232 224 212 199 191 190 188 187 185 184 180 179 174 164 167 171 199 227 232 216 222 233 250 260 264 270 279 279 286 292 294 289 294 313
270 244 254 278 340 264 305 301 284 260 222 233 229 227 228 227 225 214 204 199 195 195 192 190 187 183 181 170 152 145 141 202 219 217 224 235 244 254 261 271 273 275 267 271 281 285 277 291 298
254 214 209 288 342 294 224 289 289 270 264 251 240 233 234 230 225 215 207 203 202 200 192 188 183 182 179 170 170 170 184 201 214 210 218 242 250 254 264 271 274 271 267 263 276 293 277 280 294
221 183 219 227 200 302 241 221 281 283 263 257 245 235 236 231 221 217 210 207 204 195 189 185 181 182 179 177 178 178 192 203 211 217 231 239 247 254 266 270 269 264 264 267 271 277 274 267 274
124 59 51 51 72 287 226 190 273 240 222 243 245 234 232 229 221 221 212 198 193 185 184 182 182 185 181 181 182 185 192 199 207 219 229 235 240 254 262 266 262 262 264 267 269 266 265 265 268
111 85 347 325 328 255 233 212 250 248 228 225 231 233 229 223 215 213 202 195 191 187 188 187 186 188 185 186 189 192 193 196 206 213 221 225 234 241 250 259 259 261 264 268 268 260 260 261 265
191 158 181 240 253 285 286 237 253 257 254 239 240 243 237 225 215 212 206 199 194 191 190 189 191 190 187 191 196 194 192 195 206 209 209 217 224 235 248 253 255 259 265 271 267 261 261 265 262
196 209 185 164 256 268 267 278 296 270 266 243 238 242 241 232 222 217 206 199 195 193 194 193 192 191 191 194 193 194 193 196 202 205 209 219 226 242 246 247 252 260 265 265 263 261 263 266 267
217 158 117 158 238 264 280 272 253 275 260 252 244 239 242 241 234 224 211 205 200 198 194 192 192 193 191 191 193 198 196 198 199 200 211 220 230 241 246 249 253 259 263 263 258 263 266 266 271
170 195 192 188 198 204 265 265 232 240 252 249 245 241 241 236 231 225 218 208 198 189 190 193 194 192 192 193 194 192 192 195 197 204 214 221 229 235 238 245 250 257 260 259 260 266 270 269 273
190 201 169 187 239 213 235 267 257 250 263 257 258 256 252 245 238 228 213 195 193 195 195 196 196 197 196 193 191 194 190 190 198 209 217 218 227 233 240 247 254 260 264 261 262 272 278 273 274
Height
1559 1560 1562 1563 1568 1583 1590 1588 1587 1589 1591 1592 1592 1592 1593 1597 1600 1607 1605 1605 1608 1610 1610 1610 1610 1608 1607 1606 1604 1602 1600 1598 1596 1594 1592 1590 1588 1585 1583 1580 1577 1574 1571 1568 1565 1563 1560 1557 1554
1560 1561 1563 1563 1575 1593 1592 1587 1588 1589 1591 1592 1593 1594 1594 1596 1598 1599 1601 1604 1607 1608 1609 1608 1608 1607 1606 1605 1603 1601 1599 1598 1596 1593 1591 1589 1587 1585 1582 1579 1576 1573 1571 1568 1565 1562 1559 1556 1553
1561 1561 1563 1567 1580 1588 1588 1587 1588 1589 1591 1592 1594 1595 1596 1596 1597 1599 1601 1603 1606 1607 1607 1607 1606 1606 1605 1603 1601 1600 1598 1596 1595 1592 1590 1588 1586 1583 1580 1577 1575 1572 1570 1567 1564 1561 1558 1555 1552
1561 1563 1564 1575 1584 1585 1584 1586 1586 1589 1591 1592 1593 1596 1597 1598 1598 1599 1600 1603 1605 1606 1606 1606 1605 1605 1604 1602 1600 1598 1597 1595 1593 1591 1588 1586 1583 1581 1578 1575 1573 1571 1568 1565 1562 1560 1557 1553 1550
1561 1562 1573 1585 1587 1586 1584 1585 1586 1588 1590 1592 1593 1594 1596 1597 1597 1599 1600 1602 1604 1604 1604 1604 1604 1603 1602 1600 1599 1597 1595 1593 1591 1589 1586 1583 1581 1579 1576 1573 1571 1569 1566 1563 1561 1558 1555 1551 1548
1561 1562 1582 1590 1588 1587 1586 1585 1586 1588 1590 1591 1592 1594 1594 1596 1596 1598 1599 1601 1602 1603 1603 1603 1602 1602 1600 1599 1597 1595 1593 1591 1589 1586 1584 1581 1579 1577 1574 1572 1570 1567 1564 1562 1559 1556 1553 1549 1545
1561 1569 1581 1587 1590 1588 1586 1585 1586 1586 1588 1589 1590 1592 1593 1593 1595 1597 1598 1600 1600 1601 1601 1601 1601 1600 1599 1597 1596 1594 1592 1589 1587 1585 1582 1580 1577 1575 1573 1571 1568 1566 1563 1560 1557 1554 1551 1547 1544
1561 1568 1581 1586 1587 1585 1582 1583 1583 1585 1586 1587 1588 1588 1588 1589 1592 1595 1597 1597 1598 1598 1599 1599 1599 1598 1597 1596 1594 1592 1590 1588 1586 1583 1581 1578 1576 1574 1572 1569 1567 1564 1561 1558 1555 1551 1548 1544 1541
1561 1572 1582 1582 1582 1580 1579 1581 1583 1584 1585 1585 1584 1584 1585 1586 1588 1591 1592 1593 1594 1595 1596 1596 1596 1596 1595 1594 1592 1591 1588 1586 1584 1581 1579 1576 1574 1572 1570 1567 1565 1562 1558 1555 1551 1547 1544 1540 1536
1561 1574 1574 1573 1573 1574 1576 1578 1580 1582 1582 1582 1581 1581 1582 1583 1584 1585 1586 1587 1588 1590 1593 1594 1594 1594 1593 1592 1590 1589 1586 1584 1581 1579 1576 1574 1572 1570 1567 1565 1561 1558 1554 1551 1547 1543 1539 1535 1531
1564 1571 1570 1571 1570 1571 1575 1577 1578 1579 1580 1576 1575 1577 1578 1579 1580 1581 1583 1584 1585 1588 1589 1591 1592 1591 1590 1589 1588 1586 1584 1581 1579 1576 1574 1572 1569 1567 1564 1561 1558 1554 1550 1546 1542 1538 1534 1530 1526
1568 1571 1570 1571 1570 1572 1574 1576 1577 1574 1571 1572 1573 1574 1575 1575 1576 1577 1579 1580 1582 1583 1586 1587 1589 1589 1588 1586 1585 1583 1581 1578 1576 1573 1571 1569 1567 1564 1560 1557 1553 1548 1544 1540 1536 1532 1529 1525 1522
1570 1572 1572 1572 1572 1573 1574 1574 1574 1569 1569 1570 1570 1571 1571 1572 1573 1575 1577 1578 1579 1580 1581 1583 1585 1585 1585 1583 1582 1580 1578 1575 1572 1570 1567 1565 1563 1559 1556 1552 1547 1543 1539 1535 1531 1528 1524 1521 1517
1571 1572 1573 1573 1573 1574 1575 1574 1573 1563 1565 1566 1567 1567 1567 1568 1570 1572 1573 1573 1574 1576 1578 1579 1581 1581 1581 1580 1578 1576 1574 1572 1569 1566 1563 1561 1558 1555 1551 1547 1543 1539 1535 1531 1528 1524 1520 1517 1513
1573 1575 1576 1574 1574 1575 1576 1575 1567 1560 1562 1562 1562 1563 1564 1565 1566 1567 1568 1569 1570 1572 1574 1575 1576 1577 1577 1576 1574 1572 1570 1568 1565 1562 1559 1557 1554 1550 1547 1543 1540 1536 1532 1528 1524 1521 1517 1514 1510
1574 1577 1578 1573 1573 1574 1579 1574 1557 1557 1558 1558 1558 1559 1559 1560 1561 1563 1565 1565 1567 1568 1569 1570 1571 1572 1572 1571 1570 1568 1566 1564 1561 1558 1555 1553 1550 1547 1543 1540 1536 1532 1528 1524 1520 1517 1513 1510 1506
1578 1580 1577 1572 1571 1572 1576 1568 1554 1554 1554 1553 1553 1554 1555 1555 1557 1558 1560 1561 1562 1563 1564 1565 1565 1567 1567 1567 1566 1564 1562 1559 1557 1554 1552 1549 1546 1543 1540 1536 1533 1529 1525 1521 1517 1514 1510 1507 1503
1575 1579 1575 1571 1568 1571 1572 1563 1551 1552 1551 1549 1549 1549 1549 1549 1549 1552 1554 1556 1557 1558 1558 1559 1560 1561 1562 1562 1561 1559 1557 1555 1552 1550 1547 1545 1542 1539 1536 1533 1529 1525 1521 1518 1514 1511 1508 1504 1500
1568 1570 1570 1565 1563 1568 1567 1558 1546 1545 1546 1544 1543 1543 1542 1541 1544 1547 1549 1550 1551 1551 1552 1552 1553 1554 1555 1556 1556 1554 1553 1550 1548 1545 1543 1541 1538 1536 1532 1529 1525 1521 1517 1514 1511 1507 1503 1501 1497
1566 1568 1567 1564 1563 1565 1564 1556 1540 1536 1536 1534 1534 1534 1534 1535 1537 1540 1542 1543 1543 1543 1544 1545 1545 1547 1549 1550 1550 1549 1548 1546 1544 1541 1539 1537 1534 1531 1528 1525 1521 1517 1514 1510 1507 1504 1500 1497 1495
1565 1566 1566 1565 1563 1563 1565 1555 1538 1530 1529 1528 1527 1527 1528 1528 1529 1532 1534 1534 1535 1535 1535 1536 1538 1540 1542 1544 1544 1543 1542 1540 1539 1537 1535 1532 1530 1527 1524 1520 1517 1513 1510 1506 1503 1500 1496 1492 1490
1567 1563 1563 1564 1568 1572 1566 1570 1541 1531 1528 1524 1521 1520 1520 1521 1523 1524 1526 1526 1526 1527 1529 1530 1532 1534 1536 1537 1537 1537 1536 1535 1534 1532 1530 1528 1525 1522 1519 1516 1512 1509 1505 1502 1499 1496 1493 1489 1485
1562 1562 1563 1564 1567 1572 1568 1570 1545 1531 1528 1519 1513 1512 1512 1514 1516 1517 1518 1519 1520 1522 1522 1524 1525 1526 1528 1530 1531 1531 1530 1529 1528 1526 1525 1523 1520 1517 1514 1511 1507 1504 1500 1497 1494 1491 1488 1485 1481
1561 1563 1566 1571 1574 1576 1563 1568 1551 1531 1519 1511 1506 1505 1506 1508 1510 1511 1512 1514 1514 1515 1515 1516 1517 1519 1521 1522 1524 1524 1524 1523 1522 1520 1519 1517 1515 1513 1509 1506 1503 1499 1496 1492 1489 1486 1482 1479 1475
1563 1570 1577 1573 1578 1570 1555 1557 1538 1512 1507 1503 1500 1500 1501 1503 1504 1505 1506 1506 1506 1506 1507 1508 1509 1511 1513 1515 1517 1518 1518 1517 1516 1515 1514 1512 1510 1508 1505 1501 1498 1494 1491 1487 1484 1480 1476 1473 1469
1564 1567 1576 1577 1579 1568 1552 1549 1522 1502 1499 1497 1497 1497 1497 1497 1498 1499 1499 1499 1499 1499 1500 1500 1501 1503 1505 1507 1510 1511 1511 1510 1510 1509 1508 1507 1505 1502 1499 1496 1492 1489 1485 1482 1478 1474 1471 1467 1463
1559 1564 1563 1572 1571 1573 1557 1539 1518 1498 1495 1493 1492 1492 1492 1492 1492 1492 1493 1493 1492 1492 1492 1493 1494 1496 1498 1500 1503 1504 1505 1504 1504 1503 1502 1501 1499 1496 1494 1490 1487 1483 1480 1476 1472 1468 1464 1460 1456
1556 1559 1568 1571 1573 1572 1557 1544 1524 1500 1495 1492 1489 1487 1485 1486 1486 1486 1486 1486 1486 1486 1486 1487 1488 1489 1491 1494 1496 1497 1498 1498 1497 1497 1496 1495 1493 1491 1488 1485 1481 1478 1474 1471 1467 1462 1458 1454 1450
1558 1559 1559 1565 1568 1570 1563 1534 1504 1497 1491 1489 1484 1481 1480 1480 1480 1480 1480 1480 1480 1480 1480 1479 1480 1482 1484 1486 1488 1490 1491 1491 1491 1490 1490 1489 1488 1486 1482 1479 1476 1472 1469 1465 1461 1457 1453 1448 1444
1551 1551 1556 1562 1558 1562 1563 1525 1494 1490 1485 1484 1480 1478 1477 1477 1476 1475 1475 1474 1473 1472 1472 1472 1472 1474 1476 1479 1481 1483 1484 1484 1484 1484 1484 1484 1482 1480 1477 1474 1470 1467 1463 1459 1455 1451 1447 1442 1437